{"data":{"norad_id":63791,"intl_designator":"2025-091S","name":"STARLINK-33935","alt_names":[],"object_type":"PAYLOAD","status":"ACTIVE","operator":null,"country":"US","launch_date":"2025-05-02","launch_site_code":"AFETR","launch_vehicle":null,"mission":null,"orbit_class":"UNKNOWN","rcs_meters":null,"size_class":null,"mass_kg":null,"dimensions":null,"purposes":["comms"],"wikipedia_slug":null,"has_3d_model":false,"image_url":null,"decayed_at":null,"tle_current":{"epoch":"2026-09-20T09:05:49.667712Z","epoch_age_seconds":160306,"freshness":"FRESH","line1":"1 63791U 25091S   26263.37904708  .00006233  00000+0  23577-3 0  9990","line2":"2 63791  43.0003  33.3513 0001932 274.3139  85.7492 15.27590057 78786","mean_motion":15.27590057,"eccentricity":0.0001932,"inclination_deg":43.0003,"raan_deg":33.3513,"arg_perigee_deg":274.3139,"mean_anomaly_deg":85.7492,"bstar":0.00023577,"rev_number":7878,"period_min":94.26612810167,"perigee_km":481.69340659317,"apogee_km":484.34455726459,"semimajor_km":6861.1559819289,"source":"CELESTRAK","updated_at":"2026-09-21T09:00:35.101101Z"}}}